Weather History for Tracy, MN

Change the Weather History Date:

Saturday, June 22, 2013

  Actual Average (KMML) Record (KMML)
Temperature  
Mean Temperature 72 °F -  
Max Temperature 80 °F 80 °F 91 °F (1987)
Min Temperature 64 °F 58 °F 44 °F (1982)
Cooling Degree Days 7    
Growing Degree Days 22 (Base 50)    
Moisture  
Dew Point 65 °F    
Average Humidity 78    
Maximum Humidity 94    
Minimum Humidity 59    
Precipitation  
Precipitation 0.36 in - - ()
Sea Level Pressure  
Sea Level Pressure 29.90 in    
Wind  
Wind Speed 3 mph (SSE)    
Max Wind Speed 15 mph    
Max Gust Speed 26 mph    
Visibility 10 miles    
Events Rain , Thunderstorm    
Averages and records for this station are not official NWS values.
T = Trace of Precipitation, MM = Missing Value Source: NWS Daily Summary

Daily Weather History Graph

Daily Weather History Graph

Search for Another Location

Airport:

Trip Planner

Search our weather history database for the weather conditions in past years. The results will help you decide how hot, cold, wet, or windy it might be!

Date:

Astronomy

Jun. 22, 2013 Rise Set
Actual Time 5:38 AM CDT 9:10 PM CDT
Civil Twilight 5:02 AM CDT 9:46 PM CDT
Nautical Twilight 4:14 AM CDT 10:34 PM CDT
Astronomical Twilight 3:11 AM CDT 11:37 PM CDT
Moon 8:23 PM CDT (6/22) 4:55 AM CDT (6/22)
Length of Visible Light 16h 44m
Length of Day
15h 31m
Waxing Gibbous, 99% of the Moon is Illuminated
Jun 22
Waxing Gibbous
Jun 23
Full
Jun 29
Last Quarter
Jul 8
New
Jul 15
First Quarter

Hourly Weather History & Observations

Time (CDT) Temp. Heat Index Dew Point Humidity Pressure Visibility Wind Dir Wind Speed Gust Speed Precip Events Conditions
12:14 AM 67.6 °F - 61.3 °F 80% 29.87 in 7.0 mi South 3.5 mph 21.9 mph 0.03 in Rain , Thunderstorm Thunderstorms and Rain
12:34 AM 67.6 °F - 61.9 °F 82% 29.87 in 10.0 mi SSE 13.8 mph 26.5 mph 0.04 in Rain , Thunderstorm Light Thunderstorms and Rain
12:53 AM 67.6 °F - 62.6 °F 84% 29.89 in 10.0 mi SSE 15.0 mph 21.9 mph 0.04 in Rain , Thunderstorm Light Thunderstorms and Rain
1:14 AM 66.7 °F - 63.0 °F 88% 29.95 in 10.0 mi Calm Calm - N/A Rain , Thunderstorm Light Thunderstorms and Rain
1:34 AM 67.1 °F - 63.1 °F 87% 29.92 in 7.0 mi Calm Calm - 0.01 in Rain , Thunderstorm Thunderstorms and Rain
1:54 AM 66.2 °F - 63.5 °F 91% 29.90 in 10.0 mi Calm Calm - 0.03 in Rain Light Rain
2:13 AM 66.2 °F - 63.1 °F 90% 29.89 in 10.0 mi SE 5.8 mph - 0.01 in Rain , Thunderstorm Light Thunderstorms and Rain
2:34 AM 65.5 °F - 62.6 °F 90% 29.89 in 7.0 mi ESE 15.0 mph - 0.03 in Rain , Thunderstorm Light Thunderstorms and Rain
2:54 AM 66.2 °F - 62.8 °F 89% 29.96 in 10.0 mi Calm Calm - 0.05 in Rain , Thunderstorm Thunderstorms and Rain
3:14 AM 66.2 °F - 63.5 °F 91% 30.04 in 5.0 mi Calm Calm - 0.05 in Rain , Thunderstorm Heavy Thunderstorms and Rain
3:34 AM 66.2 °F - 63.9 °F 92% 30.00 in 4.0 mi Calm Calm - 0.14 in Rain , Thunderstorm Rain
3:54 AM 65.7 °F - 64.0 °F 94% 30.04 in 7.0 mi Calm Calm - 0.17 in Rain Light Rain
4:14 AM 65.7 °F - 63.7 °F 93% 30.03 in 7.0 mi Calm Calm - 0.03 in Rain , Thunderstorm Light Thunderstorms and Rain
4:34 AM 65.3 °F - 63.5 °F 94% 29.97 in 7.0 mi Calm Calm - 0.06 in Rain Light Rain
4:54 AM 64.8 °F - 62.8 °F 93% 29.95 in 10.0 mi Calm Calm - 0.06 in   Clear
5:13 AM 64.8 °F - 62.8 °F 93% 29.96 in 10.0 mi Calm Calm - N/A   Clear
5:34 AM 64.8 °F - 62.6 °F 93% 29.96 in 10.0 mi Calm Calm - N/A Rain Light Rain
5:54 AM 64.6 °F - 62.2 °F 92% 29.88 in 10.0 mi SE 4.6 mph 20.7 mph N/A   Scattered Clouds
6:13 AM 65.5 °F - 61.2 °F 86% 29.84 in 10.0 mi ESE 11.5 mph - N/A   Scattered Clouds
6:33 AM 66.2 °F - 60.6 °F 82% 29.86 in 10.0 mi Calm Calm - N/A   Scattered Clouds
6:54 AM 66.2 °F - 61.0 °F 83% 29.88 in 10.0 mi Calm Calm - N/A   Clear
7:13 AM 66.6 °F - 61.0 °F 82% 29.91 in 10.0 mi Calm Calm - N/A   Clear
7:33 AM 66.2 °F - 61.0 °F 83% 29.92 in 10.0 mi Calm Calm - N/A   Clear
7:53 AM 67.1 °F - 60.8 °F 80% 29.92 in 10.0 mi SSW 13.8 mph 18.4 mph N/A   Clear
8:14 AM 67.5 °F - 61.2 °F 80% 29.89 in 10.0 mi South 6.9 mph - N/A   Clear
8:33 AM 67.5 °F - 61.7 °F 82% 29.89 in 10.0 mi Calm Calm - N/A   Clear
8:54 AM 68.0 °F - 61.7 °F 80% 29.91 in 10.0 mi Calm Calm - N/A   Clear
9:14 AM 68.2 °F - 62.2 °F 81% 29.93 in 10.0 mi Calm Calm - N/A   Scattered Clouds
9:34 AM 68.2 °F - 62.4 °F 82% 29.95 in 10.0 mi Calm Calm - N/A   Mostly Cloudy
9:54 AM 69.4 °F - 63.1 °F 80% 29.94 in 10.0 mi Calm Calm - N/A   Scattered Clouds
10:13 AM 69.8 °F - 62.6 °F 78% 29.94 in 10.0 mi SSE 12.7 mph 21.9 mph N/A   Clear
10:34 AM 70.7 °F - 62.6 °F 75% 29.92 in 10.0 mi Calm Calm - N/A   Clear
10:53 AM 71.6 °F - 63.3 °F 75% 29.92 in 10.0 mi Calm Calm - N/A   Clear
11:13 AM 72.9 °F - 64.2 °F 74% 29.91 in 10.0 mi Calm Calm - N/A   Clear
11:34 AM 75.2 °F - 64.8 °F 70% 29.92 in 10.0 mi Calm Calm - N/A   Clear
11:53 AM 76.3 °F - 65.1 °F 68% 29.91 in 10.0 mi Calm Calm - N/A   Clear
12:13 PM 77.4 °F - 64.8 °F 65% 29.91 in 10.0 mi Calm Calm - N/A   Clear
12:33 PM 78.4 °F - 65.3 °F 64% 29.92 in 10.0 mi Calm Calm - N/A   Clear
12:54 PM 78.4 °F - 64.9 °F 63% 29.91 in 10.0 mi Calm Calm - N/A   Clear
1:13 PM 78.6 °F - 64.8 °F 62% 29.91 in 10.0 mi SSE 4.6 mph - N/A   Scattered Clouds
1:33 PM 79.3 °F - 64.9 °F 61% 29.91 in 10.0 mi Calm Calm - N/A   Scattered Clouds
1:54 PM 79.5 °F - 66.0 °F 63% 29.90 in 10.0 mi Calm Calm - N/A   Clear
2:14 PM 79.5 °F - 64.6 °F 60% 29.90 in 10.0 mi Calm Calm - N/A   Clear
2:34 PM 79.7 °F - 65.1 °F 61% 29.90 in 10.0 mi Calm Calm - N/A   Clear
2:54 PM 79.9 °F - 65.5 °F 61% 29.90 in 10.0 mi Calm Calm - N/A   Clear
3:14 PM 79.2 °F - 64.8 °F 61% 29.91 in 10.0 mi Calm Calm - N/A   Scattered Clouds
3:33 PM 79.7 °F - 65.5 °F 62% 29.90 in 10.0 mi Calm Calm - N/A   Scattered Clouds
3:53 PM 80.1 °F 81.8 °F 64.8 °F 59% 29.90 in 10.0 mi Calm Calm - N/A   Scattered Clouds
4:14 PM 80.1 °F 81.9 °F 64.9 °F 60% 29.89 in 10.0 mi Calm Calm - N/A   Clear
4:34 PM 79.0 °F - 65.1 °F 62% 29.89 in 10.0 mi Calm Calm - N/A   Clear
4:53 PM 78.8 °F - 65.1 °F 63% 29.88 in 10.0 mi Calm Calm - N/A   Clear
5:13 PM 78.8 °F - 66.2 °F 65% 29.88 in 10.0 mi Calm Calm - N/A   Clear
5:34 PM 78.8 °F - 65.8 °F 64% 29.87 in 10.0 mi Calm Calm - N/A   Clear
5:54 PM 78.8 °F - 66.6 °F 66% 29.87 in 10.0 mi Calm Calm - N/A   Mostly Cloudy
6:13 PM 78.3 °F - 65.7 °F 65% 29.87 in 10.0 mi Calm Calm - N/A   Overcast
6:33 PM 78.1 °F - 66.0 °F 66% 29.87 in 10.0 mi Calm Calm - N/A Rain Light Rain
6:53 PM 76.3 °F - 70.0 °F 81% 29.86 in 10.0 mi Calm Calm - N/A   Scattered Clouds
7:14 PM 76.5 °F - 72.1 °F 86% 29.86 in 10.0 mi Calm Calm - N/A   Clear
7:34 PM 77.0 °F - 69.3 °F 77% 29.85 in 10.0 mi Calm Calm - N/A   Clear
7:54 PM 76.3 °F - 70.0 °F 81% 29.85 in 10.0 mi Calm Calm - N/A   Clear
8:14 PM 75.4 °F - 70.9 °F 86% 29.84 in 10.0 mi Calm Calm - N/A   Clear
8:34 PM 74.8 °F - 69.8 °F 84% 29.84 in 10.0 mi Calm Calm - N/A   Clear
8:53 PM 75.0 °F - 69.4 °F 83% 29.84 in 10.0 mi Calm Calm - N/A Thunderstorm Clear
9:14 PM 74.5 °F - 69.3 °F 84% 29.84 in 10.0 mi Calm Calm - N/A   Scattered Clouds
9:33 PM 74.5 °F - 68.9 °F 83% 29.83 in 10.0 mi SSE 6.9 mph - N/A Rain , Thunderstorm Light Thunderstorms and Rain
9:54 PM 73.6 °F - 68.2 °F 83% 29.83 in 10.0 mi Calm Calm - N/A   Scattered Clouds
10:14 PM 72.9 °F - 67.6 °F 84% 29.83 in 10.0 mi Calm Calm - N/A Thunderstorm Mostly Cloudy
10:34 PM 72.5 °F - 66.9 °F 83% 29.83 in 10.0 mi Calm Calm - N/A Thunderstorm Scattered Clouds
10:54 PM 72.7 °F - 66.4 °F 81% 29.83 in 10.0 mi Calm Calm - N/A Thunderstorm Clear
11:14 PM 72.1 °F - 67.5 °F 85% 29.83 in 10.0 mi Calm Calm - N/A Thunderstorm Scattered Clouds
11:34 PM 72.7 °F - 67.6 °F 84% 29.81 in 10.0 mi Calm Calm - N/A Rain , Thunderstorm Light Thunderstorms and Rain
11:54 PM 72.5 °F - 68.2 °F 86% 29.80 in 10.0 mi Calm Calm - 0.01 in Rain , Thunderstorm Light Thunderstorms and Rain